FENGYUN 1C DEB, 36244

Orbit data source: Space-Track

FENGYUN 1C DEB, 36244 is space debris in SSO originally from a launch on Mon, 10 May 1999 UTC launched from the Taiyaun Space Center, China (TSC). Fengyun 1C debris stems from the Chinese weather satellite Fengyun-1C, which was intentionally destroyed by a Chinese anti-satellite missile in 2007. This event dramatically increased the amount of space debris, with thousands of trackable fragments posing hazards to satellites and human spaceflight. The Fengyun 1C debris cloud has become a focal point in discussions about space sustainability and the need for international regulations to prevent the creation of new debris.

Loading next visibility...
Identifier
36244, 1999-025DVV
Orbit
SSO
Country
Flag of CNCN / PRC
Related business
Manufacturer
Unknown
Mission
Spacecraft
Bus & Motor
Unknown
Mass
Unknown
Launch date (UTC)
1999-05-10 (27 years ago)
Launch vehicle
Unknown
Launch site
Taiyaun Space Center, China (TSC)
Object type
Payload
Rocket body
Debris
Shape & HBR
Unknown shape, 0.1 m
Radar Cross Section
Small (<0.1 m²)

Expand to show TLE details & history
Last TLE update: 4 days ago

TLE from 4 days ago
0 FENGYUN 1C DEB
1 36244U 99025DVV 26204.79688696  .00001912  00000-0  80222-3 0  9997
2 36244  98.9366 324.5829 0047877   3.8089 356.3445 14.26544918951577
Epoch: 2026-07-23T19:07Z
TLE epoch observation values (Epoch: 2026-07-23T19:07:31.033Z)
Latitude
-0.00008°
Longitude
96.17088°
Altitude
771.9 km
Speed
7.486 km/s
True Right ascension
21h 38m 19s
True Declination
0° 00' 00"
Sunlit
Object was in full shadow at epoch
Visualization orbit readout
Latitude
Unknown
Longitude
Unknown
Altitude
Unknown
Speed
Unknown
Apparent Right ascension
Unknown
Apparent Declination
Unknown
Sunlit
N/A
Visualization observer readout
Local Sidereal Time
21:59:28
Azimuth
Unknown
Elevation
Unknown
Doppler factor
Unknown
Orbital elements
Apogee altitude
834.833 km
Perigee altitude
766.095 km
Semi-major axis
7,178.601 km
Eccentricity
0.00479
Inclination
98.9366°
RAAN
324.5829°
Arg. of periapsis
3.8089°
True anomaly
356.30931°
Mean anomaly
356.3445°
Eccentric anomaly
356.32693°
Mean motion
3.56848 °/min
Orbital period
100.88 mins
BSTAR
0.00080222
Loading maneuver chart data...
Computing Atmospheric mass density...

Documentation

Showing up to 5 results
|